Regional Weather Roundup
Issued by NWS Little Rock, AR

Home | Current Version | Previous Version | Graphics & Text | Print | Product List | Glossary On
Versions: 1 2 3 4 5 6 7 8 9 10 11 12 13 14 15 16 17 18 19 20 21 22 23 24 25 26 27 28
000
ASUS44 KLZK 250905
RWRLZK

WEATHER ROUNDUP FOR ARKANSAS
NATIONAL WEATHER SERVICE LITTLE ROCK AR
400 AM CDT WED MAY 25 2016

NOTE: "FAIR" INDICATES FEW OR NO CLOUDS BELOW 12,000 FEET WITH NO
SIGNIFICANT WEATHER AND/OR OBSTRUCTIONS TO VISIBILITY.

ARZ001-003-010-029-251000-
NORTHWEST ARKANSAS

CITY           SKY/WX    TMP DP  RH WIND       PRES   REMARKS
FAYETTEVILLE   TSTM      61  61 100 SW29G46   30.01R VSB 3/4
FORT SMITH     TSTM      71  67  87 NE7       29.95R
HARRISON       CLOUDY    66  63  90 SE7       29.99R
BENTONVILLE    CLOUDY    70  64  83 CALM      30.02R THUNDER
ROGERS         TSTM      69  68  96 W6        30.01R
SILOAM SPGS    CLOUDY    64  54  68 N15G33    30.03R THUNDER
HIGHFILL       TSTM      66  65  96 W26G40    30.06R VSB 3/4
$$

ARZ004-005-016-251000-
NORTH CENTRAL ARKANSAS

CITY           SKY/WX    TMP DP  RH WIND       PRES   REMARKS
BATESVILLE     MOCLDY    64  61  88 S6        30.00R
FLIPPIN        CLOUDY   N/A N/A N/A CALM      29.96R
MTN HOME       PTCLDY    61  60  97 CALM      29.98R
$$

ARZ040-041-251000-
WEST CENTRAL ARKANSAS

CITY           SKY/WX    TMP DP  RH WIND       PRES   REMARKS
MENA           CLOUDY    77  73  88 S7        30.01F
MOUNT IDA      CLOUDY    69  64  84 CALM      30.01R
$$

ARZ009-017-025-026-028-251000-
NORTHEAST ARKANSAS

CITY           SKY/WX    TMP DP  RH WIND       PRES   REMARKS
CORNING          N/A     63  63 100 SE5       30.01R
JONESBORO      CLOUDY    64  63  96 E5        30.00R
NEWPORT        CLOUDY    65  65 100 CALM      30.01R
WALNUT RIDGE   PTCLDY    63  61  94 CALM      30.00R
BLYTHEVILLE    CLOUDY    65  64  97 E7        30.02S
$$

ARZ022-023-033-042-044-251000-
CENTRAL ARKANSAS

CITY           SKY/WX    TMP DP  RH WIND       PRES   REMARKS
LITTLE ROCK    CLOUDY    67  62  84 S8        29.99F
N LITTLE ROCK    N/A     67  62  85 S9        29.97S
JACKSONVILLE   CLOUDY    68  63  85 S8        29.97F
SEARCY         PTCLDY    63  63 100 NE5       30.01R
HOT SPRINGS    CLOUDY    70  63  78 SW6       30.03R
RUSSELLVILLE   CLOUDY    64  64 100 CALM      30.00R
CLINTON          N/A     63  63 100 CALM      30.01R
$$

ARZ036-251000-
EAST ARKANSAS

CITY           SKY/WX    TMP DP  RH WIND       PRES   REMARKS
WEST MEMPHIS   CLOUDY    65  64  97 SE6       30.01R
$$

ARZ050-053-066-070-073-251000-
SOUTHWEST ARKANSAS

CITY           SKY/WX    TMP DP  RH WIND       PRES   REMARKS
ARKADELPHIA    FAIR      70  70 100 SW3       30.01S
CAMDEN         CLOUDY    68  64  88 CALM      30.02R
TEXARKANA      CLOUDY    76  71  85 S7        30.01R
EL DORADO      CLOUDY    74  71  91 S9        30.01S
DE QUEEN       CLOUDY    77  72  84 SE6       29.98R
$$

ARZ056-057-069-251000-
SOUTHEAST ARKANSAS

CITY           SKY/WX    TMP DP  RH WIND       PRES   REMARKS
PINE BLUFF     CLOUDY    68  62  81 SE6       30.02F
STUTTGART      CLEAR     68  61  77 S13       30.00S
MONTICELLO     CLOUDY    69  64  84 E3        30.02F

$$






USA.gov is the U.S. government's official web portal to all federal, state and local government web resources and services.